UB9HDM-10 Weather Reports


Display with metric or nautical units.
time (UTC)temp
F
wind
direction
speed
MPH
gust
MPH
rain 1hr
in
rain 24hr
in
rain mn
in
humidity
%
barometer
mb
20260508031521 66 0.0 0.0 0.00 0.01 0.00 62 997.9
20260508024511 64 0.0 0.0 0.00 0.01 0.00 67 998.1
20260508021518 62 0.0 0.0 0.00 0.01 0.00 73 998.2
20260508014519 60 0.0 0.0 0.00 0.01 0.00 75 998.3
20260508011519 58 0.0 0.0 0.00 0.01 0.00 77 998.4
20260508004515 57 0.0 0.0 0.00 0.01 0.00 80 998.4
20260507231514 52 0.0 0.0 0.00 0.01 0.00 87 997.9
20260507224520 52 0.0 0.0 0.00 0.01 0.00 87 998.0
20260507201504 56 0.0 0.0 0.00 0.01 0.00 81 998.2
20260507191508 57 0.0 0.0 0.00 0.01 0.00 79 998.7
20260507184521 58 0.0 0.0 0.00 0.01 0.00 77 999.0
20260507174513 58 0.0 0.0 0.00 0.01 0.00 76 999.2
20260507171527 59 0.0 0.0 0.00 0.01 0.00 75 999.4
20260507141554 63 0.0 0.0 0.00 0.02 0.01 65 1000.3
20260507131519 67 0.0 0.0 0.00 0.02 0.01 57 1000.4
20260507124517 69 0.0 0.0 0.00 0.02 0.01 54 1000.6
20260507090021 73 0.0 0.0 0.00 0.02 0.01 45 1001.4
20260507081521 72 0.0 0.0 0.01 0.02 0.01 48 1001.7
20260507074519 72 0.0 0.0 0.01 0.02 0.01 51 1001.9
20260507071523 71 0.0 0.0 0.00 0.01 0.00 53 1002.2
20260507064534 70 0.0 0.0 0.00 0.01 0.00 58 1002.3